Weather History for Norrkoping, Sweden

Change the Weather History Date:

Tuesday, February 5, 2013

  Actual Average Record
Temperature  
Mean Temperature 34 °F -  
Max Temperature 39 °F - - ()
Min Temperature 28 °F - - ()
Degree Days  
Heating Degree Days 30    
Moisture  
Dew Point 30 °F    
Average Humidity 83    
Maximum Humidity 100    
Minimum Humidity 65    
Precipitation  
Precipitation 0.00 in - - ()
Sea Level Pressure  
Sea Level Pressure 28.99 in    
Wind  
Wind Speed 12 mph ()    
Max Wind Speed 18 mph    
Max Gust Speed -    
Visibility 5.9 miles    
Events Rain , Snow    
T = Trace of Precipitation, MM = Missing Value Source: Averaged Metar Reports

Daily Weather History Graph

Daily Weather History Graph

Search for Another Location

Airport:

Trip Planner

Search our weather history database for the weather conditions in past years. The results will help you decide how hot, cold, wet, or windy it might be!

Date:

Astronomy

Feb. 05, 2013 Rise Set
Actual Time 7:52 AM CET 4:26 PM CET
Civil Twilight 7:08 AM CET 5:10 PM CET
Nautical Twilight 6:20 AM CET 5:58 PM CET
Astronomical Twilight 5:34 AM CET 6:44 PM CET
Moon 3:42 AM CET (2/5) 10:58 AM CET (2/5)
Length of Visible Light 10h 01m
Length of Day
8h 34m
Waning Crescent, 29% of the Moon is Illuminated
Feb 5
Waning Crescent
Feb 10
New
Feb 17
First Quarter
Feb 25
Full
Mar 4
Last Quarter

Hourly Weather History & Observations

Time (CET) Temp. Windchill Dew Point Humidity Pressure Visibility Wind Dir Wind Speed Gust Speed Precip Events Conditions
12:20 AM 33.8 °F 25.3 °F 32.0 °F 93% 28.91 in 4.3 mi SW 11.5 mph - N/A Rain Light Rain
12:50 AM 33.8 °F 24.8 °F 33.8 °F 100% 28.91 in 6.2 mi SW 12.7 mph - N/A   Light Drizzle
1:20 AM 33.8 °F 24.3 °F 33.8 °F 100% 28.91 in 6.2 mi SW 13.8 mph - N/A   Light Drizzle
1:50 AM 35.6 °F 26.6 °F 32.0 °F 87% 28.91 in 6.2 mi SW 13.8 mph - N/A   Light Drizzle
2:20 AM 35.6 °F 27.1 °F 32.0 °F 87% 28.91 in 6.2 mi SW 12.7 mph - N/A   Overcast
2:50 AM 35.6 °F 27.1 °F 32.0 °F 87% 28.91 in 6.2 mi WSW 12.7 mph - N/A   Overcast
3:20 AM 35.6 °F 26.6 °F 32.0 °F 87% 28.91 in 6.2 mi WSW 13.8 mph - N/A   Overcast
3:50 AM 35.6 °F 25.9 °F 32.0 °F 87% 28.91 in 6.2 mi WSW 16.1 mph - N/A   Overcast
4:20 AM 35.6 °F 25.9 °F 32.0 °F 87% 28.91 in 6.2 mi WSW 16.1 mph - N/A   Overcast
4:50 AM 35.6 °F 25.9 °F 32.0 °F 87% 28.91 in 6.2 mi WSW 16.1 mph - N/A   Overcast
5:20 AM 35.6 °F 25.5 °F 32.0 °F 87% 28.91 in 6.2 mi WSW 17.3 mph - N/A   Overcast
5:50 AM 35.6 °F 25.9 °F 30.2 °F 81% 28.91 in 6.2 mi WSW 16.1 mph - N/A   Overcast
6:20 AM 35.6 °F 25.9 °F 30.2 °F 81% 28.91 in 6.2 mi WSW 16.1 mph - N/A   Overcast
6:51 AM 35.6 °F 26.2 °F 32.0 °F 87% 28.91 in 5.0 mi WSW 15.0 mph - N/A Rain Light Rain
7:20 AM 35.6 °F 25.9 °F 30.2 °F 81% 28.91 in 5.0 mi SW 16.1 mph - N/A   Mostly Cloudy
7:50 AM 35.6 °F 25.5 °F 30.2 °F 81% 28.94 in 6.2 mi SW 17.3 mph - N/A   Mostly Cloudy
8:20 AM 35.6 °F 25.2 °F 32.0 °F 87% 28.94 in 6.2 mi SW 18.4 mph - N/A   Mostly Cloudy
8:50 AM 35.6 °F 26.2 °F 32.0 °F 87% 28.94 in 4.3 mi SW 15.0 mph - N/A   Mostly Cloudy
9:20 AM 35.6 °F 28.0 °F 32.0 °F 87% 28.97 in 6.2 mi SW 10.4 mph - N/A   Mostly Cloudy
9:50 AM 35.6 °F 27.1 °F 30.2 °F 81% 28.97 in 6.2 mi SW 12.7 mph - N/A   Overcast
10:20 AM 37.4 °F 28.9 °F 30.2 °F 75% 28.97 in 6.2 mi SW 13.8 mph - N/A   Overcast
10:50 AM 35.6 °F 26.6 °F 30.2 °F 81% 28.97 in 6.2 mi SW 13.8 mph - N/A   Mostly Cloudy
11:20 AM 35.6 °F 26.6 °F 30.2 °F 81% 28.97 in 5.6 mi SW 13.8 mph - N/A   Overcast
11:50 AM 35.6 °F 26.2 °F 30.2 °F 81% 29.00 in 2.5 mi SW 15.0 mph - N/A Snow Light Snow
12:20 PM 35.6 °F 27.5 °F 30.2 °F 81% 29.00 in 5.6 mi SW 11.5 mph - N/A Snow Snow Grains
12:50 PM 37.4 °F 28.9 °F 28.4 °F 70% 29.00 in 6.2 mi SW 13.8 mph - N/A   Mostly Cloudy
1:20 PM 37.4 °F 28.2 °F 28.4 °F 70% 29.00 in 6.2 mi SW 16.1 mph - N/A   Scattered Clouds
1:50 PM 39.2 °F 30.2 °F 28.4 °F 65% 29.00 in 6.2 mi SW 17.3 mph - N/A   Scattered Clouds
2:20 PM 39.2 °F 30.2 °F 28.4 °F 65% 29.00 in 6.2 mi WSW 17.3 mph - N/A   Scattered Clouds
2:50 PM 37.4 °F 27.8 °F 28.4 °F 70% 29.00 in 6.2 mi WSW 17.3 mph - N/A   Partly Cloudy
3:20 PM 35.6 °F 27.1 °F 30.2 °F 81% 29.03 in 6.2 mi SW 12.7 mph - N/A Snow Snow Grains
3:50 PM 35.6 °F 26.2 °F 30.2 °F 81% 29.03 in 6.2 mi SW 15.0 mph - N/A   Scattered Clouds
4:20 PM 35.6 °F 28.0 °F 30.2 °F 81% 29.03 in 5.0 mi SW 10.4 mph - N/A   Drizzle
4:50 PM 35.6 °F 29.2 °F 28.4 °F 75% 29.03 in 6.2 mi SW 8.1 mph - N/A   Scattered Clouds
5:20 PM 35.6 °F 29.2 °F 28.4 °F 75% 29.03 in 6.2 mi SSW 8.1 mph - N/A   Partly Cloudy
5:50 PM 33.8 °F 26.4 °F 28.4 °F 81% 29.06 in - SSW 9.2 mph - N/A   Clear
6:20 PM 33.8 °F 27.0 °F 28.4 °F 81% 29.06 in 6.2 mi South 8.1 mph - N/A   Unknown
6:50 PM 33.8 °F 27.0 °F 28.4 °F 81% 29.06 in - South 8.1 mph - N/A   Clear
7:20 PM 32.0 °F 25.6 °F 26.6 °F 80% 29.06 in - South 6.9 mph - N/A   Clear
7:50 PM 32.0 °F 24.8 °F 26.6 °F 80% 29.09 in - South 8.1 mph - N/A   Clear
8:20 PM 32.0 °F 25.6 °F 26.6 °F 80% 29.09 in 6.2 mi South 6.9 mph - N/A   Mostly Cloudy
8:50 PM 32.0 °F 26.4 °F 26.6 °F 80% 29.09 in 6.2 mi South 5.8 mph - N/A   Mostly Cloudy
9:20 PM 30.2 °F 23.4 °F 26.6 °F 86% 29.09 in 6.2 mi South 6.9 mph - N/A   Partly Cloudy
9:50 PM 30.2 °F 24.3 °F 26.6 °F 86% 29.09 in 6.2 mi South 5.8 mph - N/A   Mostly Cloudy
10:20 PM 30.2 °F 24.3 °F 26.6 °F 86% 29.12 in 6.2 mi SSE 5.8 mph - N/A   Overcast
10:50 PM 30.2 °F 22.6 °F 26.6 °F 86% 29.12 in 6.2 mi SSE 8.1 mph - N/A   Mostly Cloudy
11:20 PM 30.2 °F 21.9 °F 26.6 °F 86% 29.12 in 6.2 mi SSE 9.2 mph - N/A   Mostly Cloudy
11:50 PM 28.4 °F 20.4 °F 26.6 °F 93% 29.12 in 6.2 mi SSE 8.1 mph - N/A   Scattered Clouds